DECAYED

DRAGON CRS-31 DEB, 62608 (Decayed)

Orbit data source: Space-Track

DRAGON CRS-31 DEB, 62608 was space debris in LEO originally from a launch on Tue, 05 Nov 2024 UTC launched from the Air Force Eastern Test Range (AFETR). Debris objects in space refer to the collection of defunct objects orbiting the Earth. Examples of debris include non-operational satellites, rocket bodies, and fragments generated from explosions, collisions, or faulty payload assembly.

Not visible in the next 10 days
Identifier
62608, 2024-200B
Orbit
Decayed
Country
Flag of USUS
Related business
Manufacturer
SpaceX
Mission
Decayed spacecraft
Bus & Motor
DRAGON SM, Unknown motor
Mass
Wet unknown, ~2,300 kg dry
Launch date (UTC)
2024-11-05 (1 year ago)
Launch vehicle
Unknown
Launch site
Air Force Eastern Test Range (AFETR)
Object type
Payload
Rocket body
Debris
Shape & HBR
Cyl, 1.9 m
Radar Cross Section
16.128 m², Large (>1 m²)

Expand to show TLE details & history
Last TLE update: 9 months ago

TLE from 9 months ago
0 DRAGON CRS-31 DEB
1 62608U 24200B   25029.65332789  .05515617  12458-4  39522-3 0  9999
2 62608  51.6226 259.7984 0005990 314.7115  89.5839 16.40053217  2479
Epoch: 2025-01-29T15:40Z
TLE epoch observation values (Epoch: 2025-01-29T15:40:47.529Z)
Latitude
33.3542°
Longitude
-73.324°
Altitude
167.731 km
Speed
7.81 km/s
True Right ascension
19h 24m 03s
True Declination
33° 10' 56"
Sunlit
Object was in daylight at epoch
Visualization orbit readout
Latitude
Unknown
Longitude
Unknown
Altitude
Unknown
Speed
Unknown
Apparent Right ascension
Unknown
Apparent Declination
Unknown
Sunlit
N/A
Visualization observer readout
Local Sidereal Time
07:46:29
Azimuth
Unknown
Elevation
Unknown
Doppler factor
Unknown
Orbital elements
Apogee altitude
170.111 km
Perigee altitude
162.271 km
Semi-major axis
6,544.328 km
Eccentricity
0.0006
Inclination
51.6226°
RAAN
259.7984°
Arg. of periapsis
314.7115°
True anomaly
89.65254°
Mean anomaly
89.5839°
Eccentric anomaly
89.61822°
Mean motion
4.09964 °/min
Orbital period
87.81 mins
BSTAR
0.00039522
Loading maneuver chart data...
Computing Atmospheric mass density...
Loading historical data...
Loading historical data...
Loading historical data...
Loading historical data...
Loading historical data...
Loading historical data...
Loading historical data...
Other satellites on launch #200 in the year 2024 (2024-11-05 UTC)

Documentation

Showing up to 5 results
|